This demonstration page uses our WeatherBlox Daily Observations layout. Learn more.

Hourly Observations for June 25, 2019

Temp ( °F °C ) Dew Point ( °F °C ) Humidity (%) Winds ( mph kmh ) Pressure ( in mb ) Visibility ( mi km ) Precip ( " mm )
12:15 am 00:15 Mostly Cloudy 72 22 72 22 100 100 Calm 29.83 1010 10 16.09344 0 0
12:35 am 00:35 Partly Cloudy 72 22 72 22 100 100 Calm 29.8 1009 10 16.09344 0 0
12:55 am 00:55 Mostly Cloudy with Nearby Thunderstorms 72 22 72 22 100 100 S 5 7 29.8 1009 10 16.09344 0 0
1:15 am 01:15 Cloudy with Nearby Thunderstorms 72 22 72 22 100 100 SW 3 6 29.8 1009 10 16.09344 0 0
1:35 am 01:35 Cloudy with Nearby Thunderstorms 72 22 72 22 100 100 W 7 11 29.83 1010 4 6.437376 0.08 2.032
1:55 am 01:55 Cloudy with Nearby Thunderstorms 70 21 70 21 100 100 Calm 29.8 1009 7 11.265408 0.24 6.096
2:15 am 02:15 Cloudy 70 21 70 21 100 100 Calm 29.83 1010 7 11.265408 0.03 0.762
2:35 am 02:35 Cloudy 70 21 70 21 100 100 Calm 29.83 1010 4 6.437376 0.11 2.794
2:55 am 02:55 Partly Cloudy 70 21 70 21 100 100 Calm 29.8 1009 7 11.265408 0.15 3.81
3:15 am 03:15 Partly Cloudy 70 21 70 21 100 100 Calm 29.8 1009 10 16.09344 0.01 0.254
3:35 am 03:35 Mostly Cloudy 68 20 68 20 100 100 WSW 3 6 29.8 1009 10 16.09344 0.01 0.254
3:55 am 03:55 Mostly Cloudy 68 20 68 20 100 100 Calm 29.8 1009 10 16.09344 0.01 0.254
4:15 am 04:15 Cloudy 68 20 68 20 100 100 N 6 9 29.8 1009 10 16.09344 0 0
4:35 am 04:35 Partly Cloudy 68 20 68 20 100 100 Calm 29.8 1009 10 16.09344 0 0
4:55 am 04:55 Partly Cloudy 68 20 68 20 100 100 Calm 29.8 1009 10 16.09344 0 0
5:15 am 05:15 Clear 68 20 68 20 100 100 NW 5 7 29.8 1009 10 16.09344 0 0
5:35 am 05:35 Clear 68 20 68 20 100 100 W 5 7 29.8 1009 10 16.09344 0 0
5:55 am 05:55 Sunny 68 20 68 20 100 100 NW 9 15 29.83 1010 10 16.09344 0 0
6:15 am 06:15 Sunny 70 21 66 19 88 88 NW 13 20 29.83 1010 10 16.09344 0 0
6:35 am 06:35 Sunny 70 21 66 19 88 88 NW 9 15 29.83 1010 10 16.09344 0 0
6:55 am 06:55 Sunny 70 21 66 19 88 88 NW 7 11 29.85 1011 10 16.09344 0 0
7:15 am 07:15 Sunny 72 22 64 18 78 78 N 6 9 29.85 1011 10 16.09344 0 0
7:35 am 07:35 Sunny 72 22 64 18 78 78 N 5 7 29.88 1012 10 16.09344 0 0
7:55 am 07:55 Sunny 73 23 66 19 78 78 NW 10 17 29.88 1012 10 16.09344 0 0
8:15 am 08:15 Sunny 73 23 66 19 78 78 NNW 10 17 29.88 1012 10 16.09344 0 0
8:35 am 08:35 Sunny 73 23 66 19 78 78 NW 10 17 29.88 1012 10 16.09344 0 0
8:55 am 08:55 Sunny 77 25 68 20 74 74 NNW 12 19 29.91 1013 10 16.09344 0 0
9:15 am 09:15 Sunny 77 25 68 20 74 74 NNW 12 19 29.91 1013 10 16.09344 0 0
9:35 am 09:35 Sunny 77 25 66 19 69 69 NNW 10 17 29.91 1013 10 16.09344 0 0
9:55 am 09:55 Sunny 79 26 68 20 70 70 WNW 14 22 29.91 1013 10 16.09344 0 0
10:15 am 10:15 Sunny 79 26 68 20 70 70 NW 12 19 29.91 1013 10 16.09344 0 0
10:35 am 10:35 Sunny 79 26 68 20 70 70 NNW 13 20 29.91 1013 10 16.09344 0 0
10:55 am 10:55 Sunny 81 27 68 20 66 66 NW 15 24 29.91 1013 10 16.09344 0 0
11:15 am 11:15 Partly Cloudy 81 27 68 20 66 66 NW 13 20 29.91 1013 10 16.09344 0 0
11:35 am 11:35 Partly Cloudy 82 28 68 20 62 62 NW 15 24 29.91 1013 10 16.09344 0 0
11:55 am 11:55 Partly Cloudy 82 28 68 20 62 62 NNW 12 19 29.91 1013 10 16.09344 0 0
12:15 pm 12:15 Mostly Cloudy 82 28 68 20 62 62 NNW 12 19 29.91 1013 10 16.09344 0 0
12:35 pm 12:35 Mostly Cloudy 82 28 68 20 62 62 NNW 16 26 29.91 1013 10 16.09344 0 0
12:55 pm 12:55 Partly Cloudy 86 30 70 21 59 59 WNW 13 20 29.88 1012 10 16.09344 0 0
1:15 pm 13:15 Partly Cloudy 86 30 68 20 55 55 NW 14 22 29.88 1012 10 16.09344 0 0
1:35 pm 13:35 Mostly Cloudy 86 30 68 20 55 55 W 10 17 29.88 1012 10 16.09344 0 0
2:15 pm 14:15 Partly Cloudy 88 31 68 20 52 52 NW 12 19 29.88 1012 10 16.09344 0 0
2:35 pm 14:35 Partly Cloudy 88 31 64 18 46 46 NW 14 22 29.88 1012 10 16.09344 0 0
2:55 pm 14:55 Partly Cloudy 86 30 64 18 49 49 WNW 12 19 29.88 1012 10 16.09344 0 0
3:15 pm 15:15 Partly Cloudy 88 31 64 18 46 46 NW 9 15 29.88 1012 10 16.09344 0 0
3:35 pm 15:35 Partly Cloudy 88 31 64 18 46 46 NW 12 19 29.88 1012 10 16.09344 0 0
4:15 pm 16:15 Partly Cloudy 88 31 64 18 46 46 NW 13 20 29.88 1012 10 16.09344 0 0
4:35 pm 16:35 Partly Cloudy 88 31 63 17 43 43 NW 13 20 29.88 1012 10 16.09344 0 0
4:55 pm 16:55 Partly Cloudy 88 31 63 17 43 43 WNW 13 20 29.88 1012 10 16.09344 0 0
5:15 pm 17:15 Partly Cloudy 88 31 63 17 43 43 NNW 12 19 29.88 1012 10 16.09344 0 0
5:35 pm 17:35 Partly Cloudy 86 30 63 17 46 46 NW 12 19 29.88 1012 10 16.09344 0 0
5:55 pm 17:55 Partly Cloudy 86 30 63 17 46 46 NW 14 22 29.88 1012 10 16.09344 0 0
6:35 pm 18:35 Sunny 86 30 63 17 46 46 NW 8 13 29.88 1012 10 16.09344 0 0
6:55 pm 18:55 Sunny 86 30 63 17 46 46 NNW 8 13 29.88 1012 10 16.09344 0 0
7:15 pm 19:15 Sunny 82 28 64 18 55 55 NW 7 11 29.94 1014 10 16.09344 0 0
7:35 pm 19:35 Sunny 82 28 64 18 55 55 NW 6 9 29.94 1014 10 16.09344 0 0
7:55 pm 19:55 Sunny 82 28 64 18 55 55 NW 3 6 29.94 1014 10 16.09344 0 0
8:15 pm 20:15 Sunny 82 28 64 18 55 55 W 3 6 29.94 1014 10 16.09344 0 0
8:35 pm 20:35 Sunny 81 27 66 19 62 62 WNW 3 6 29.94 1014 10 16.09344 0 0
8:55 pm 20:55 Clear 81 27 64 18 58 58 Calm 29.97 1015 10 16.09344 0 0
9:15 pm 21:15 Clear 77 25 66 19 69 69 W 3 6 29.97 1015 10 16.09344 0 0
9:35 pm 21:35 Clear 77 25 68 20 74 74 SSE 5 7 29.97 1015 10 16.09344 0 0
9:55 pm 21:55 Clear 75 24 68 20 78 78 Calm 29.97 1015 10 16.09344 0 0
10:15 pm 22:15 Clear 73 23 66 19 78 78 WNW 5 7 30 1016 10 16.09344 0 0
10:35 pm 22:35 Clear 72 22 68 20 88 88 WNW 3 6 30 1016 10 16.09344 0 0
10:55 pm 22:55 Clear 70 21 68 20 94 94 Calm 30 1016 10 16.09344 0 0
11:15 pm 23:15 Clear 72 22 66 19 83 83 Calm 30 1016 10 16.09344 0 0
11:35 pm 23:35 Clear 70 21 66 19 88 88 WNW 5 7 30.03 1017 10 16.09344 0 0
11:55 pm 23:55 Clear 72 22 64 18 78 78 WNW 5 7 30.03 1017 10 16.09344 0 0

Powered by AerisWeather